contact:dominique.lefevre@mio.osupytheas.fr, maurice.libes@osupytheas.fr, didier.mallarino@osupytheas.fr
Project:EMSO http://www.emso-fr.org/EMSO-France
Depth: 2436.0 m
Title:EMSO Ligure Ouest : Data MII capteur OXYGEN
DateTime,Latitude,Longitude,Optode-Type,Optode_Serial,Oxygen,Saturation_Oxygen,Temperature
DateTime,Latitude,Longitude,Optode-Type,Optode_Serial,µmol.l-1,%,degC
2019-06-17T00:01:03,42.805,6.029,4330,1995,194.841,59.586,13.289
2019-06-17T00:04:03,42.805,6.029,4330,1995,194.804,59.575,13.289
2019-06-17T00:07:03,42.805,6.029,4330,1995,194.829,59.583,13.289
2019-06-17T00:10:03,42.805,6.029,4330,1995,194.826,59.582,13.289
2019-06-17T00:13:03,42.805,6.029,4330,1995,194.794,59.572,13.289
2019-06-17T00:16:03,42.805,6.029,4330,1995,194.730,59.553,13.289
2019-06-17T00:19:03,42.805,6.029,4330,1995,194.814,59.577,13.288
2019-06-17T00:22:03,42.805,6.029,4330,1995,194.783,59.569,13.289
2019-06-17T00:25:03,42.805,6.029,4330,1995,194.791,59.570,13.288
2019-06-17T00:28:03,42.805,6.029,4330,1995,194.788,59.570,13.288
2019-06-17T00:31:03,42.805,6.029,4330,1995,194.781,59.567,13.288
2019-06-17T00:34:03,42.805,6.029,4330,1995,194.826,59.580,13.288
2019-06-17T00:37:03,42.805,6.029,4330,1995,194.789,59.570,13.289
2019-06-17T00:40:03,42.805,6.029,4330,1995,194.780,59.566,13.288
2019-06-17T00:43:03,42.805,6.029,4330,1995,194.789,59.570,13.288
2019-06-17T00:46:03,42.805,6.029,4330,1995,194.775,59.566,13.289
2019-06-17T00:49:03,42.805,6.029,4330,1995,194.727,59.550,13.288
2019-06-17T00:52:03,42.805,6.029,4330,1995,194.812,59.576,13.288
2019-06-17T00:55:03,42.805,6.029,4330,1995,194.816,59.577,13.288
2019-06-17T00:58:03,42.805,6.029,4330,1995,194.774,59.566,13.289
2019-06-17T01:01:03,42.805,6.029,4330,1995,194.769,59.564,13.288
2019-06-17T01:04:03,42.805,6.029,4330,1995,194.762,59.562,13.289
2019-06-17T01:07:03,42.805,6.029,4330,1995,194.752,59.558,13.288
2019-06-17T01:10:03,42.805,6.029,4330,1995,194.774,59.565,13.288
2019-06-17T01:13:03,42.805,6.029,4330,1995,194.774,59.566,13.289
2019-06-17T01:16:03,42.805,6.029,4330,1995,194.717,59.547,13.288
2019-06-17T01:19:03,42.805,6.029,4330,1995,194.756,59.559,13.288
2019-06-17T01:22:03,42.805,6.029,4330,1995,194.778,59.567,13.289
2019-06-17T01:25:03,42.805,6.029,4330,1995,194.763,59.563,13.289
2019-06-17T01:28:03,42.805,6.029,4330,1995,194.794,59.572,13.289
2019-06-17T01:31:03,42.805,6.029,4330,1995,194.750,59.558,13.289
2019-06-17T01:34:03,42.805,6.029,4330,1995,194.772,59.565,13.289
2019-06-17T01:37:03,42.805,6.029,4330,1995,194.784,59.570,13.289
2019-06-17T01:40:03,42.805,6.029,4330,1995,194.756,59.563,13.291
2019-06-17T01:43:03,42.805,6.029,4330,1995,194.787,59.569,13.289
2019-06-17T01:46:03,42.805,6.029,4330,1995,194.862,59.593,13.289
2019-06-17T01:49:03,42.805,6.029,4330,1995,194.791,59.572,13.290
2019-06-17T01:52:03,42.805,6.029,4330,1995,194.765,59.563,13.289
2019-06-17T01:55:03,42.805,6.029,4330,1995,194.831,59.584,13.290
2019-06-17T01:58:03,42.805,6.029,4330,1995,194.798,59.575,13.290
2019-06-17T02:01:03,42.805,6.029,4330,1995,194.795,59.574,13.290
2019-06-17T02:04:03,42.805,6.029,4330,1995,194.794,59.573,13.290
2019-06-17T02:07:03,42.805,6.029,4330,1995,194.788,59.570,13.289
2019-06-17T02:10:03,42.805,6.029,4330,1995,194.795,59.572,13.289
2019-06-17T02:13:03,42.805,6.029,4330,1995,194.825,59.581,13.289
2019-06-17T02:16:03,42.805,6.029,4330,1995,194.816,59.578,13.289
2019-06-17T02:19:03,42.805,6.029,4330,1995,194.742,59.558,13.290
2019-06-17T02:22:03,42.805,6.029,4330,1995,194.814,59.579,13.289
2019-06-17T02:25:03,42.805,6.029,4330,1995,194.832,59.583,13.288
2019-06-17T02:28:03,42.805,6.029,4330,1995,194.822,59.580,13.289
2019-06-17T02:31:03,42.805,6.029,4330,1995,194.805,59.574,13.288
2019-06-17T02:34:03,42.805,6.029,4330,1995,194.846,59.588,13.289
2019-06-17T02:37:03,42.805,6.029,4330,1995,194.850,59.587,13.288
2019-06-17T02:40:03,42.805,6.029,4330,1995,194.851,59.588,13.288
2019-06-17T02:43:03,42.805,6.029,4330,1995,194.845,59.586,13.288
2019-06-17T02:46:03,42.805,6.029,4330,1995,194.866,59.592,13.288
2019-06-17T02:49:03,42.805,6.029,4330,1995,194.851,59.588,13.288
2019-06-17T02:52:03,42.805,6.029,4330,1995,194.786,59.568,13.288
2019-06-17T02:55:03,42.805,6.029,4330,1995,194.827,59.581,13.288
2019-06-17T02:58:03,42.805,6.029,4330,1995,194.821,59.579,13.288
2019-06-17T03:01:03,42.805,6.029,4330,1995,194.824,59.580,13.288
2019-06-17T03:04:03,42.805,6.029,4330,1995,194.772,59.564,13.288
2019-06-17T03:07:03,42.805,6.029,4330,1995,194.838,59.585,13.288
2019-06-17T03:10:03,42.805,6.029,4330,1995,194.865,59.593,13.288
2019-06-17T03:13:03,42.805,6.029,4330,1995,194.870,59.594,13.288
2019-06-17T03:16:03,42.805,6.029,4330,1995,194.856,59.590,13.289
2019-06-17T03:19:03,42.805,6.029,4330,1995,194.847,59.588,13.289
2019-06-17T03:22:03,42.805,6.029,4330,1995,194.824,59.581,13.289
2019-06-17T03:25:03,42.805,6.029,4330,1995,194.828,59.583,13.289
2019-06-17T03:28:03,42.805,6.029,4330,1995,194.837,59.585,13.289
2019-06-17T03:31:03,42.805,6.029,4330,1995,194.787,59.569,13.289
2019-06-17T03:34:03,42.805,6.029,4330,1995,194.859,59.591,13.288
2019-06-17T03:37:03,42.805,6.029,4330,1995,194.839,59.586,13.289
2019-06-17T03:40:03,42.805,6.029,4330,1995,194.806,59.576,13.289
2019-06-17T03:43:03,42.805,6.029,4330,1995,194.801,59.574,13.289
2019-06-17T03:46:03,42.805,6.029,4330,1995,194.804,59.576,13.290
2019-06-17T03:49:03,42.805,6.029,4330,1995,194.833,59.584,13.289
2019-06-17T03:52:03,42.805,6.029,4330,1995,194.772,59.566,13.289
2019-06-17T03:55:03,42.805,6.029,4330,1995,194.802,59.575,13.289
2019-06-17T03:58:03,42.805,6.029,4330,1995,194.761,59.564,13.290
2019-06-17T04:01:03,42.805,6.029,4330,1995,194.804,59.575,13.289
2019-06-17T04:04:03,42.805,6.029,4330,1995,194.771,59.566,13.290
2019-06-17T04:07:03,42.805,6.029,4330,1995,194.742,59.556,13.289
2019-06-17T04:10:03,42.805,6.029,4330,1995,194.738,59.555,13.289
2019-06-17T04:13:03,42.805,6.029,4330,1995,194.809,59.576,13.289
2019-06-17T04:16:03,42.805,6.029,4330,1995,194.800,59.574,13.289
2019-06-17T04:19:03,42.805,6.029,4330,1995,194.764,59.562,13.289
2019-06-17T04:22:03,42.805,6.029,4330,1995,194.823,59.580,13.289
2019-06-17T04:25:03,42.805,6.029,4330,1995,194.768,59.565,13.289
2019-06-17T04:28:03,42.805,6.029,4330,1995,194.851,59.589,13.289
2019-06-17T04:31:03,42.805,6.029,4330,1995,194.849,59.589,13.289
2019-06-17T04:34:03,42.805,6.029,4330,1995,194.867,59.594,13.289
2019-06-17T04:37:03,42.805,6.029,4330,1995,194.816,59.578,13.289
2019-06-17T04:40:03,42.805,6.029,4330,1995,194.780,59.567,13.289
2019-06-17T04:43:03,42.805,6.029,4330,1995,194.827,59.581,13.288
2019-06-17T04:46:03,42.805,6.029,4330,1995,194.899,59.603,13.288
2019-06-17T04:49:03,42.805,6.029,4330,1995,194.861,59.591,13.288
2019-06-17T04:52:03,42.805,6.029,4330,1995,194.848,59.587,13.288
2019-06-17T04:55:03,42.805,6.029,4330,1995,194.887,59.600,13.288
2019-06-17T04:58:03,42.805,6.029,4330,1995,194.899,59.602,13.288
2019-06-17T05:01:03,42.805,6.029,4330,1995,194.867,59.592,13.288
2019-06-17T05:04:03,42.805,6.029,4330,1995,194.858,59.590,13.288
2019-06-17T05:07:03,42.805,6.029,4330,1995,194.882,59.598,13.288
2019-06-17T05:10:03,42.805,6.029,4330,1995,194.895,59.602,13.288
2019-06-17T05:13:03,42.805,6.029,4330,1995,194.900,59.603,13.288
2019-06-17T05:16:03,42.805,6.029,4330,1995,194.874,59.595,13.288
2019-06-17T05:19:03,42.805,6.029,4330,1995,194.873,59.595,13.288
2019-06-17T05:22:03,42.805,6.029,4330,1995,194.917,59.609,13.288
2019-06-17T05:25:03,42.805,6.029,4330,1995,194.935,59.614,13.288
2019-06-17T05:28:03,42.805,6.029,4330,1995,194.864,59.592,13.288
2019-06-17T05:31:03,42.805,6.029,4330,1995,194.884,59.599,13.288
2019-06-17T05:34:03,42.805,6.029,4330,1995,194.881,59.598,13.289
2019-06-17T05:37:03,42.805,6.029,4330,1995,194.850,59.588,13.288
2019-06-17T05:40:03,42.805,6.029,4330,1995,194.893,59.601,13.288
2019-06-17T05:43:03,42.805,6.029,4330,1995,194.874,59.596,13.288
2019-06-17T05:46:03,42.805,6.029,4330,1995,194.805,59.576,13.290
2019-06-17T05:49:03,42.805,6.029,4330,1995,194.803,59.575,13.289
2019-06-17T05:52:03,42.805,6.029,4330,1995,194.765,59.563,13.289
2019-06-17T05:55:03,42.805,6.029,4330,1995,194.868,59.595,13.289
2019-06-17T05:58:03,42.805,6.029,4330,1995,194.804,59.575,13.289
2019-06-17T06:01:03,42.805,6.029,4330,1995,194.863,59.594,13.289
2019-06-17T06:04:03,42.805,6.029,4330,1995,194.789,59.570,13.289
2019-06-17T06:07:03,42.805,6.029,4330,1995,194.777,59.567,13.289
2019-06-17T06:10:03,42.805,6.029,4330,1995,194.807,59.577,13.289
2019-06-17T06:13:03,42.805,6.029,4330,1995,194.854,59.591,13.289
2019-06-17T06:16:03,42.805,6.029,4330,1995,194.869,59.596,13.289
2019-06-17T06:19:03,42.805,6.029,4330,1995,194.850,59.589,13.289
2019-06-17T06:22:03,42.805,6.029,4330,1995,194.848,59.589,13.289
2019-06-17T06:25:03,42.805,6.029,4330,1995,194.869,59.596,13.290
2019-06-17T06:28:03,42.805,6.029,4330,1995,194.904,59.606,13.289
2019-06-17T06:31:03,42.805,6.029,4330,1995,194.847,59.589,13.290
2019-06-17T06:34:03,42.805,6.029,4330,1995,194.938,59.616,13.289
2019-06-17T06:37:03,42.805,6.029,4330,1995,194.863,59.594,13.289
2019-06-17T06:40:03,42.805,6.029,4330,1995,194.882,59.600,13.290
2019-06-17T06:43:03,42.805,6.029,4330,1995,194.878,59.598,13.289
2019-06-17T06:46:03,42.805,6.029,4330,1995,194.916,59.609,13.289
2019-06-17T06:49:03,42.805,6.029,4330,1995,194.840,59.586,13.289
2019-06-17T06:52:03,42.805,6.029,4330,1995,194.845,59.588,13.289
2019-06-17T06:55:03,42.805,6.029,4330,1995,194.840,59.585,13.289
2019-06-17T06:58:03,42.805,6.029,4330,1995,194.847,59.588,13.289
2019-06-17T07:01:03,42.805,6.029,4330,1995,194.830,59.582,13.288
2019-06-17T07:04:03,42.805,6.029,4330,1995,194.846,59.587,13.288
2019-06-17T07:07:03,42.805,6.029,4330,1995,194.855,59.590,13.288
2019-06-17T07:10:03,42.805,6.029,4330,1995,194.866,59.593,13.288
2019-06-17T07:13:03,42.805,6.029,4330,1995,194.792,59.570,13.288
2019-06-17T07:16:03,42.805,6.029,4330,1995,194.795,59.571,13.288
2019-06-17T07:19:03,42.805,6.029,4330,1995,194.807,59.575,13.288
2019-06-17T07:22:03,42.805,6.029,4330,1995,194.829,59.582,13.289
2019-06-17T07:25:03,42.805,6.029,4330,1995,194.853,59.590,13.289
2019-06-17T07:28:03,42.805,6.029,4330,1995,194.851,59.589,13.289
2019-06-17T07:31:03,42.805,6.029,4330,1995,194.910,59.606,13.288
2019-06-17T07:34:03,42.805,6.029,4330,1995,194.863,59.592,13.288
2019-06-17T07:37:03,42.805,6.029,4330,1995,194.859,59.592,13.289
2019-06-17T07:40:03,42.805,6.029,4330,1995,194.846,59.587,13.289
2019-06-17T07:43:03,42.805,6.029,4330,1995,194.920,59.610,13.289
2019-06-17T07:46:03,42.805,6.029,4330,1995,194.854,59.590,13.288
2019-06-17T07:49:03,42.805,6.029,4330,1995,194.868,59.594,13.288
2019-06-17T07:52:03,42.805,6.029,4330,1995,194.876,59.597,13.289
2019-06-17T07:55:03,42.805,6.029,4330,1995,194.958,59.622,13.289
2019-06-17T07:58:03,42.805,6.029,4330,1995,194.894,59.603,13.289
2019-06-17T08:01:03,42.805,6.029,4330,1995,194.858,59.592,13.290
2019-06-17T08:04:03,42.805,6.029,4330,1995,194.907,59.608,13.290
2019-06-17T08:07:03,42.805,6.029,4330,1995,194.922,59.611,13.289
2019-06-17T08:10:03,42.805,6.029,4330,1995,194.888,59.601,13.289
2019-06-17T08:13:03,42.805,6.029,4330,1995,194.864,59.593,13.289
2019-06-17T08:16:03,42.805,6.029,4330,1995,194.801,59.576,13.290
2019-06-17T08:19:03,42.805,6.029,4330,1995,194.873,59.596,13.289
2019-06-17T08:22:03,42.805,6.029,4330,1995,194.913,59.609,13.289
2019-06-17T08:25:03,42.805,6.029,4330,1995,194.892,59.603,13.290
2019-06-17T08:28:03,42.805,6.029,4330,1995,194.861,59.593,13.289
2019-06-17T08:31:03,42.805,6.029,4330,1995,194.946,59.620,13.290
2019-06-17T08:34:03,42.805,6.029,4330,1995,194.897,59.604,13.289
2019-06-17T08:37:03,42.805,6.029,4330,1995,194.886,59.600,13.289
2019-06-17T08:40:03,42.805,6.029,4330,1995,194.841,59.587,13.290
2019-06-17T08:43:03,42.805,6.029,4330,1995,194.946,59.619,13.289
2019-06-17T08:46:03,42.805,6.029,4330,1995,194.887,59.600,13.289
2019-06-17T08:49:03,42.805,6.029,4330,1995,194.919,59.611,13.290
2019-06-17T08:52:03,42.805,6.029,4330,1995,194.810,59.577,13.289
2019-06-17T08:55:03,42.805,6.029,4330,1995,194.834,59.585,13.289
2019-06-17T08:58:03,42.805,6.029,4330,1995,194.902,59.606,13.289
2019-06-17T09:01:03,42.805,6.029,4330,1995,194.829,59.583,13.289
2019-06-17T09:04:03,42.805,6.029,4330,1995,194.878,59.597,13.288
2019-06-17T09:07:03,42.805,6.029,4330,1995,194.915,59.609,13.289
2019-06-17T09:10:03,42.805,6.029,4330,1995,194.887,59.601,13.289
2019-06-17T09:13:03,42.805,6.029,4330,1995,194.859,59.591,13.288
2019-06-17T09:16:03,42.805,6.029,4330,1995,194.878,59.597,13.288
2019-06-17T09:19:03,42.805,6.029,4330,1995,194.897,59.603,13.288
2019-06-17T09:22:03,42.805,6.029,4330,1995,194.921,59.610,13.288
2019-06-17T09:25:03,42.805,6.029,4330,1995,194.869,59.594,13.288
2019-06-17T09:28:03,42.805,6.029,4330,1995,194.822,59.580,13.288
2019-06-17T09:31:03,42.805,6.029,4330,1995,194.913,59.608,13.289
2019-06-17T09:34:03,42.805,6.029,4330,1995,194.874,59.595,13.288
2019-06-17T09:37:03,42.805,6.029,4330,1995,194.871,59.595,13.288
2019-06-17T09:40:03,42.805,6.029,4330,1995,194.876,59.596,13.288
2019-06-17T09:43:03,42.805,6.029,4330,1995,194.872,59.596,13.289
2019-06-17T09:46:03,42.805,6.029,4330,1995,194.889,59.600,13.288
2019-06-17T09:49:03,42.805,6.029,4330,1995,194.896,59.603,13.289
2019-06-17T09:52:03,42.805,6.029,4330,1995,194.872,59.595,13.288
2019-06-17T09:55:03,42.805,6.029,4330,1995,194.861,59.593,13.289
2019-06-17T09:58:03,42.805,6.029,4330,1995,194.922,59.611,13.289
2019-06-17T10:01:03,42.805,6.029,4330,1995,194.874,59.597,13.290
2019-06-17T10:04:03,42.805,6.029,4330,1995,194.945,59.618,13.289
2019-06-17T10:07:03,42.805,6.029,4330,1995,194.887,59.600,13.289
2019-06-17T10:10:03,42.805,6.029,4330,1995,194.882,59.599,13.289
2019-06-17T10:13:03,42.805,6.029,4330,1995,194.828,59.583,13.289
2019-06-17T10:16:03,42.805,6.029,4330,1995,194.809,59.577,13.289
2019-06-17T10:19:03,42.805,6.029,4330,1995,194.801,59.575,13.289
2019-06-17T10:22:03,42.805,6.029,4330,1995,194.836,59.585,13.289
2019-06-17T10:25:03,42.805,6.029,4330,1995,194.864,59.593,13.289
2019-06-17T10:28:03,42.805,6.029,4330,1995,194.816,59.581,13.290
2019-06-17T10:31:03,42.805,6.029,4330,1995,194.839,59.586,13.289
2019-06-17T10:34:03,42.805,6.029,4330,1995,194.868,59.594,13.289
2019-06-17T10:37:03,42.805,6.029,4330,1995,194.914,59.609,13.289
2019-06-17T10:40:03,42.805,6.029,4330,1995,194.903,59.606,13.289
2019-06-17T10:43:03,42.805,6.029,4330,1995,194.934,59.616,13.290
2019-06-17T10:46:03,42.805,6.029,4330,1995,194.867,59.595,13.289
2019-06-17T10:49:03,42.805,6.029,4330,1995,194.824,59.582,13.289
2019-06-17T10:52:03,42.805,6.029,4330,1995,194.921,59.611,13.289
2019-06-17T10:55:03,42.805,6.029,4330,1995,194.872,59.597,13.290
2019-06-17T10:58:03,42.805,6.029,4330,1995,194.854,59.591,13.290
2019-06-17T11:01:03,42.805,6.029,4330,1995,194.867,59.595,13.289
2019-06-17T11:04:03,42.805,6.029,4330,1995,194.917,59.610,13.289
2019-06-17T11:07:03,42.805,6.029,4330,1995,194.906,59.606,13.289
2019-06-17T11:10:03,42.805,6.029,4330,1995,194.907,59.607,13.289
2019-06-17T11:13:02,42.805,6.029,4330,1995,194.862,59.593,13.289
2019-06-17T11:16:02,42.805,6.029,4330,1995,194.887,59.600,13.289
2019-06-17T11:19:02,42.805,6.029,4330,1995,194.885,59.599,13.288
2019-06-17T11:22:02,42.805,6.029,4330,1995,194.859,59.591,13.288
2019-06-17T11:25:02,42.805,6.029,4330,1995,194.962,59.623,13.288
2019-06-17T11:28:02,42.805,6.029,4330,1995,194.919,59.609,13.288
2019-06-17T11:31:02,42.805,6.029,4330,1995,194.914,59.607,13.288
2019-06-17T11:34:02,42.805,6.029,4330,1995,194.893,59.601,13.288
2019-06-17T11:37:02,42.805,6.029,4330,1995,194.909,59.606,13.288
2019-06-17T11:40:02,42.805,6.029,4330,1995,194.898,59.602,13.288
2019-06-17T11:43:02,42.805,6.029,4330,1995,194.902,59.604,13.288
2019-06-17T11:46:02,42.805,6.029,4330,1995,194.924,59.610,13.288
2019-06-17T11:49:02,42.805,6.029,4330,1995,194.884,59.599,13.289
2019-06-17T11:52:02,42.805,6.029,4330,1995,194.897,59.603,13.289
2019-06-17T11:55:02,42.805,6.029,4330,1995,194.901,59.604,13.289
2019-06-17T11:58:02,42.805,6.029,4330,1995,194.928,59.613,13.289
2019-06-17T12:01:02,42.805,6.029,4330,1995,194.899,59.603,13.288
2019-06-17T12:04:02,42.805,6.029,4330,1995,194.924,59.610,13.288
2019-06-17T12:07:02,42.805,6.029,4330,1995,194.951,59.619,13.289
2019-06-17T12:10:02,42.805,6.029,4330,1995,194.995,59.633,13.288
2019-06-17T12:13:02,42.805,6.029,4330,1995,195.014,59.638,13.288
2019-06-17T12:16:02,42.805,6.029,4330,1995,194.911,59.607,13.289
2019-06-17T12:19:02,42.805,6.029,4330,1995,194.946,59.617,13.288
2019-06-17T12:22:02,42.805,6.029,4330,1995,194.981,59.628,13.288
2019-06-17T12:25:02,42.805,6.029,4330,1995,194.969,59.625,13.289
2019-06-17T12:28:02,42.805,6.029,4330,1995,194.974,59.628,13.290
2019-06-17T12:31:02,42.805,6.029,4330,1995,194.911,59.608,13.289
2019-06-17T12:34:02,42.805,6.029,4330,1995,194.924,59.611,13.289
2019-06-17T12:37:02,42.805,6.029,4330,1995,194.909,59.607,13.289
2019-06-17T12:40:02,42.805,6.029,4330,1995,194.930,59.614,13.289
2019-06-17T12:43:02,42.805,6.029,4330,1995,194.903,59.605,13.289
2019-06-17T12:46:02,42.805,6.029,4330,1995,194.932,59.614,13.289
2019-06-17T12:49:02,42.805,6.029,4330,1995,194.927,59.613,13.289
2019-06-17T12:52:02,42.805,6.029,4330,1995,194.956,59.622,13.289
2019-06-17T12:55:02,42.805,6.029,4330,1995,194.912,59.608,13.289
2019-06-17T12:58:02,42.805,6.029,4330,1995,194.885,59.601,13.290
2019-06-17T13:01:02,42.805,6.029,4330,1995,194.912,59.608,13.289
2019-06-17T13:04:02,42.805,6.029,4330,1995,194.908,59.608,13.290
2019-06-17T13:07:02,42.805,6.029,4330,1995,194.908,59.609,13.291
2019-06-17T13:10:02,42.805,6.029,4330,1995,194.914,59.609,13.289
2019-06-17T13:13:02,42.805,6.029,4330,1995,194.886,59.600,13.289
2019-06-17T13:16:02,42.805,6.029,4330,1995,194.958,59.622,13.289
2019-06-17T13:19:02,42.805,6.029,4330,1995,194.884,59.599,13.289
2019-06-17T13:22:02,42.805,6.029,4330,1995,194.913,59.608,13.289
2019-06-17T13:25:02,42.805,6.029,4330,1995,194.975,59.628,13.289
2019-06-17T13:28:02,42.805,6.029,4330,1995,194.913,59.608,13.289
2019-06-17T13:31:02,42.805,6.029,4330,1995,194.936,59.616,13.289
2019-06-17T13:34:02,42.805,6.029,4330,1995,194.919,59.609,13.288
2019-06-17T13:37:02,42.805,6.029,4330,1995,194.924,59.611,13.288
2019-06-17T13:40:02,42.805,6.029,4330,1995,194.853,59.589,13.288
2019-06-17T13:43:02,42.805,6.029,4330,1995,194.930,59.613,13.288
2019-06-17T13:46:02,42.805,6.029,4330,1995,194.885,59.599,13.288
2019-06-17T13:49:02,42.805,6.029,4330,1995,194.953,59.619,13.288
2019-06-17T13:52:02,42.805,6.029,4330,1995,194.903,59.604,13.288
2019-06-17T13:55:02,42.805,6.029,4330,1995,194.865,59.593,13.288
2019-06-17T13:58:02,42.805,6.029,4330,1995,194.905,59.605,13.288
2019-06-17T14:01:02,42.805,6.029,4330,1995,194.846,59.587,13.289
2019-06-17T14:04:02,42.805,6.029,4330,1995,194.910,59.606,13.288
2019-06-17T14:07:02,42.805,6.029,4330,1995,194.852,59.589,13.288
2019-06-17T14:10:02,42.805,6.029,4330,1995,194.906,59.605,13.288
2019-06-17T14:13:02,42.805,6.029,4330,1995,194.878,59.597,13.288
2019-06-17T14:16:02,42.805,6.029,4330,1995,194.825,59.581,13.289
2019-06-17T14:19:02,42.805,6.029,4330,1995,194.844,59.587,13.289
2019-06-17T14:22:02,42.805,6.029,4330,1995,194.844,59.587,13.288
2019-06-17T14:25:02,42.805,6.029,4330,1995,194.893,59.602,13.288
2019-06-17T14:28:02,42.805,6.029,4330,1995,194.854,59.590,13.289
2019-06-17T14:31:02,42.805,6.029,4330,1995,194.904,59.605,13.289
2019-06-17T14:34:02,42.805,6.029,4330,1995,194.913,59.608,13.289
2019-06-17T14:37:02,42.805,6.029,4330,1995,194.932,59.614,13.289
2019-06-17T14:40:02,42.805,6.029,4330,1995,194.887,59.600,13.289
2019-06-17T14:43:02,42.805,6.029,4330,1995,194.855,59.591,13.289
2019-06-17T14:46:02,42.805,6.029,4330,1995,194.865,59.594,13.289
2019-06-17T14:49:02,42.805,6.029,4330,1995,194.884,59.600,13.289
2019-06-17T14:52:02,42.805,6.029,4330,1995,194.847,59.588,13.289
2019-06-17T14:55:02,42.805,6.029,4330,1995,194.873,59.595,13.288
2019-06-17T14:58:02,42.805,6.029,4330,1995,194.877,59.598,13.289
2019-06-17T15:01:02,42.805,6.029,4330,1995,194.810,59.577,13.289
2019-06-17T15:04:02,42.805,6.029,4330,1995,194.894,59.603,13.290
2019-06-17T15:07:02,42.805,6.029,4330,1995,194.931,59.614,13.289
2019-06-17T15:10:02,42.805,6.029,4330,1995,194.916,59.610,13.290
2019-06-17T15:13:02,42.805,6.029,4330,1995,194.879,59.598,13.289
2019-06-17T15:16:02,42.805,6.029,4330,1995,194.875,59.596,13.289
2019-06-17T15:19:02,42.805,6.029,4330,1995,194.838,59.586,13.290
2019-06-17T15:22:02,42.805,6.029,4330,1995,194.915,59.609,13.289
2019-06-17T15:25:02,42.805,6.029,4330,1995,194.913,59.610,13.290
2019-06-17T15:28:02,42.805,6.029,4330,1995,194.848,59.588,13.289
2019-06-17T15:31:02,42.805,6.029,4330,1995,194.939,59.616,13.289
2019-06-17T15:34:02,42.805,6.029,4330,1995,194.876,59.597,13.289
2019-06-17T15:37:02,42.805,6.029,4330,1995,194.911,59.607,13.288
2019-06-17T15:40:02,42.805,6.029,4330,1995,194.865,59.594,13.289
2019-06-17T15:43:02,42.805,6.029,4330,1995,194.930,59.613,13.289
2019-06-17T15:46:02,42.805,6.029,4330,1995,194.944,59.617,13.288
2019-06-17T15:49:02,42.805,6.029,4330,1995,194.873,59.595,13.288
2019-06-17T15:52:02,42.805,6.029,4330,1995,194.899,59.603,13.288
2019-06-17T15:55:02,42.805,6.029,4330,1995,194.896,59.601,13.287
2019-06-17T15:58:02,42.805,6.029,4330,1995,194.915,59.609,13.289
2019-06-17T16:01:02,42.805,6.029,4330,1995,194.899,59.603,13.288
2019-06-17T16:04:02,42.805,6.029,4330,1995,194.805,59.575,13.289
2019-06-17T16:07:02,42.805,6.029,4330,1995,194.931,59.614,13.289
2019-06-17T16:10:02,42.805,6.029,4330,1995,194.900,59.604,13.288
2019-06-17T16:13:02,42.805,6.029,4330,1995,194.856,59.590,13.288
2019-06-17T16:16:02,42.805,6.029,4330,1995,194.874,59.596,13.288
2019-06-17T16:19:02,42.805,6.029,4330,1995,194.846,59.587,13.289
2019-06-17T16:22:02,42.805,6.029,4330,1995,194.888,59.600,13.288
2019-06-17T16:25:02,42.805,6.029,4330,1995,194.865,59.593,13.289
2019-06-17T16:28:02,42.805,6.029,4330,1995,194.901,59.604,13.288
2019-06-17T16:31:02,42.805,6.029,4330,1995,194.921,59.610,13.288
2019-06-17T16:34:02,42.805,6.029,4330,1995,194.997,59.633,13.288
2019-06-17T16:37:02,42.805,6.029,4330,1995,194.938,59.616,13.289
2019-06-17T16:40:02,42.805,6.029,4330,1995,194.914,59.608,13.288
2019-06-17T16:43:02,42.805,6.029,4330,1995,194.873,59.597,13.289
2019-06-17T16:46:02,42.805,6.029,4330,1995,194.943,59.617,13.288
2019-06-17T16:49:02,42.805,6.029,4330,1995,194.881,59.599,13.289
2019-06-17T16:52:02,42.805,6.029,4330,1995,194.861,59.592,13.289
2019-06-17T16:55:02,42.805,6.029,4330,1995,194.882,59.599,13.289
2019-06-17T16:58:02,42.805,6.029,4330,1995,194.915,59.608,13.288
2019-06-17T17:01:02,42.805,6.029,4330,1995,194.921,59.611,13.289
2019-06-17T17:04:02,42.805,6.029,4330,1995,194.855,59.591,13.289
2019-06-17T17:07:02,42.805,6.029,4330,1995,194.869,59.596,13.289
2019-06-17T17:10:02,42.805,6.029,4330,1995,194.904,59.607,13.290
2019-06-17T17:13:02,42.805,6.029,4330,1995,194.870,59.595,13.289
2019-06-17T17:16:02,42.805,6.029,4330,1995,194.906,59.606,13.289
2019-06-17T17:19:02,42.805,6.029,4330,1995,194.920,59.612,13.290
2019-06-17T17:22:02,42.805,6.029,4330,1995,194.921,59.611,13.289
2019-06-17T17:25:02,42.805,6.029,4330,1995,194.918,59.611,13.289
2019-06-17T17:28:02,42.805,6.029,4330,1995,194.885,59.600,13.289
2019-06-17T17:31:02,42.805,6.029,4330,1995,194.873,59.598,13.290
2019-06-17T17:34:02,42.805,6.029,4330,1995,194.925,59.613,13.290
2019-06-17T17:37:02,42.805,6.029,4330,1995,194.936,59.615,13.289
2019-06-17T17:40:02,42.805,6.029,4330,1995,194.916,59.610,13.290
2019-06-17T17:43:02,42.805,6.029,4330,1995,194.869,59.595,13.289
2019-06-17T17:46:02,42.805,6.029,4330,1995,194.844,59.587,13.289
2019-06-17T17:49:02,42.805,6.029,4330,1995,194.873,59.596,13.289
2019-06-17T17:52:02,42.805,6.029,4330,1995,194.897,59.604,13.289
2019-06-17T17:55:02,42.805,6.029,4330,1995,194.884,59.600,13.289
2019-06-17T17:58:02,42.805,6.029,4330,1995,194.809,59.576,13.288
2019-06-17T18:01:02,42.805,6.029,4330,1995,194.918,59.609,13.288
2019-06-17T18:04:02,42.805,6.029,4330,1995,194.879,59.598,13.289
2019-06-17T18:07:02,42.805,6.029,4330,1995,194.902,59.604,13.288